Location: Unspecified
(0.0000°N, 0.0000°E)
Time: 14:50:24
(UTC+00:00)

N. Korean satellite - Pass Details

Date: 15 April 2021
Orbit: 452 x 499 km, 97.2° (Epoch: 15 April)

Event Time Altitude Azimuth Distance (km) Brightness Sun altitude
Rises 04:59:20 0° 10° (N) 2,510 10.5 -15.0°
Reaches altitude 10° 05:01:23 10° 10° (N) 1,627 9.5 -14.5°
Maximum altitude 05:04:53 88° 284° (WNW) 471 6.4 -13.6°
Drops below altitude 10° 05:08:20 10° 192° (SSW) 1,611 9.0 -12.7°
Sets 05:10:22 0° 191° (S) 2,481 9.9 -12.2°
